User: anonymous   Login
Location: Unspecified
(36.4264°N, 0.0000°E)
Time: 16:00:38
(UTC+00:00)
Language:

ONEWEB-0423 - Orbit

View from above orbital plane
View from above orbital plane
View from above satellite
View from above satellite

Ground track
Ground track

The orbit is defined by the following mean orbital elements,

1 51627U          26088.18393712 +.00000000 +00000-0 +95106-4 0 00007
2 51627  87.9187  21.7482 0001842  82.7883 277.3458 13.17649899    01
Epoch (UTC): 29 March 2026 04:24:52
Eccentricity: 0.0001842
inclination: 87.9187°
perigee height: 1192 km
apogee height: 1195 km
right ascension of ascending node: 21.7482°
argument of perigee: 82.7883°
revolutions per day: 13.17649899
mean anomaly at epoch: 277.3458°

The dashed part of the orbit path shows where the satellite is in the earth's shadow,  

DLR